TERRESTAR-1

Last updated on Tue Jul 08 2025 00:02:44 GMT+0000 (Coordinated Universal Time)

1 35496U 09035A 25188.54152057 -.00000044 00000+0 00000+0 0 9994 2 35496 4.9120 48.6834 0002557 46.6321 274.3519 1.00270648 58674
UTC large
Height (km)
Speed (km/s)
/
Latitude / Longitude
Inclination (degrees)
Orbital Period (minutes)
Azimuth
Elevation
Range (km)
Doppler Factor

Next 0 passes for location: London (51.5072 / 0.1276)

Sorry there are no passes over London.